Voltar ao catálogo

FENGYUN 1C DEB

AtivoSSO
NORAD 37060·DEBRIS·🇨🇳 China

Lançado May 10, 1999 de Taiyuan Satellite Launch Center

Loading…

Próximas Passagens (próximas 24 horas)

TLE

EnvelhecendoSource: Space-Track

Época: Sep 7, 2026, 08:29 UTC

1 37060U 99025EEU 26250.35389795  .00000123  00000-0  10912-3 0  9997
2 37060  99.0553 310.9783 0078716 327.6775  31.9580 14.00923811664670

Acompanhe FENGYUN 1C DEB em tempo real com AllMySat

Download on the App Store